Kekaha, MQ

3:26 PM SST on December 04, 2016 (GMT -1100)
Henderson Field

Weather History for PMDY - August, 2014

Change the Weather History Date:

Monday, August 18, 2014

  Actual Average (PHBK) Record (PHBK)
Temperature  
Mean Temperature 84 °F -  
Max Temperature 90 °F 89 °F 92 °F (1969)
Min Temperature 79 °F 68 °F 64 °F (1950)
Cooling Degree Days 20    
Growing Degree Days 34 (Base 50)    
Moisture  
Dew Point 73 °F    
Average Humidity 70    
Maximum Humidity 79    
Minimum Humidity 55    
Precipitation  
Precipitation 0.00 in - - ()
Sea Level Pressure  
Sea Level Pressure 30.84 in    
Wind  
Wind Speed 5 mph (SSW)    
Max Wind Speed 9 mph    
Max Gust Speed -    
Visibility 10 miles    
Events      
Averages and records for this station are not official NWS values.
T = Trace of Precipitation, MM = Missing Value Source: NWS Daily Summary

Daily Weather History Graph

Daily Weather History Graph

Search for Another Location

Airport or City:

Trip Planner

Search our weather history database for the weather conditions in past years. The results will help you decide how hot, cold, wet, or windy it might be!

Date:

Astronomy

Aug. 18, 2014 Rise Set
Actual Time 5:21 PM GMT 6:25 AM GMT
Civil Twilight 4:56 PM GMT 6:49 AM GMT
Nautical Twilight 4:27 PM GMT 7:18 AM GMT
Astronomical Twilight 3:57 PM GMT 7:48 AM GMT
Moon 11:45 AM GMT (8/18) 12:40 AM GMT (8/18)
Length of Visible Light 13h 52m
Length of Day
13h 04m
Last Quarter, 40% of the Moon is Illuminated
Aug 18
Last Quarter
Aug 25
New
Sep 2
First Quarter
Sep 9
Full
Sep 16
Last Quarter

Hourly Weather History & Observations

Time (GMT) Temp. Heat Index Dew Point Humidity Pressure Visibility Wind Dir Wind Speed Gust Speed Precip Events Conditions
12:48 AM 89.6 °F 99.8 °F 75.2 °F 62% 30.07 in 10.0 mi SW 8.1 mph - N/A   Mostly Cloudy
12:56 AM 88.9 °F 97.6 °F 73.9 °F 61% 30.97 in 10.0 mi WSW 9.2 mph - N/A   Scattered Clouds
1:56 AM 88.9 °F 98.6 °F 74.8 °F 63% 30.96 in 10.0 mi WNW 8.1 mph - N/A   Partly Cloudy
2:56 AM 88.0 °F 96.5 °F 73.9 °F 63% 30.95 in 10.0 mi West 6.9 mph - N/A   Clear
3:56 AM 88.0 °F 96.5 °F 73.9 °F 63% 30.94 in 10.0 mi WSW 5.8 mph - N/A   Clear
4:56 AM 86.9 °F 95.0 °F 73.9 °F 65% 30.94 in 10.0 mi Calm Calm - N/A   Clear
5:49 AM 84.2 °F 90.9 °F 73.4 °F 70% 30.05 in 10.0 mi Calm Calm - N/A   Mostly Cloudy
5:56 AM 84.9 °F 92.1 °F 73.9 °F 69% 30.95 in 10.0 mi South 3.5 mph - N/A   Scattered Clouds
6:56 AM 81.9 °F 87.0 °F 72.9 °F 74% 30.96 in 10.0 mi Calm Calm - N/A   Clear
7:56 AM 81.9 °F 87.7 °F 73.9 °F 77% 30.98 in 10.0 mi SSE 3.5 mph - N/A   Clear
8:56 AM 81.9 °F 87.7 °F 73.9 °F 77% 30.98 in 10.0 mi SSE 5.8 mph - N/A   Clear
9:56 AM 81.9 °F 87.7 °F 73.9 °F 77% 30.98 in 10.0 mi South 4.6 mph - N/A   Clear
10:56 AM 81.9 °F 87.7 °F 73.9 °F 77% 30.97 in 10.0 mi Calm Calm - N/A   Clear
11:56 AM 81.9 °F 87.7 °F 73.9 °F 77% 30.96 in 10.0 mi South 4.6 mph - N/A   Clear
12:56 PM 81.0 °F 86.2 °F 73.9 °F 79% 30.95 in 10.0 mi Calm Calm - N/A   Partly Cloudy
1:56 PM 81.0 °F 86.2 °F 73.9 °F 79% 30.95 in 10.0 mi South 4.6 mph - N/A   Scattered Clouds
2:05 PM 80.6 °F 85.4 °F 73.4 °F 79% 30.05 in 10.0 mi Calm Calm - N/A   Mostly Cloudy
2:22 PM 80.6 °F 85.4 °F 73.4 °F 79% 30.05 in 10.0 mi Calm Calm - N/A   Scattered Clouds
2:56 PM 81.0 °F 85.6 °F 72.9 °F 76% 30.95 in 10.0 mi South 5.8 mph - N/A   Clear
3:56 PM 81.0 °F 85.6 °F 72.9 °F 76% 30.95 in 10.0 mi South 5.8 mph - N/A   Clear
4:56 PM 79.9 °F - 72.9 °F 79% 30.96 in 10.0 mi SSE 5.8 mph - N/A   Partly Cloudy
5:56 PM 81.9 °F 87.0 °F 72.9 °F 74% 30.97 in 10.0 mi Calm Calm - N/A   Clear
6:56 PM 84.9 °F 90.7 °F 72.0 °F 65% 30.99 in 10.0 mi Calm Calm - N/A   Clear
7:56 PM 86.9 °F 93.3 °F 72.0 °F 61% 31.00 in 10.0 mi Calm Calm - N/A   Clear
8:56 PM 88.0 °F 94.7 °F 72.0 °F 59% 31.01 in 10.0 mi South 5.8 mph - N/A   Clear
9:56 PM 88.9 °F 95.6 °F 72.0 °F 57% 31.01 in 10.0 mi South 5.8 mph - N/A   Clear
10:56 PM 90.9 °F 98.9 °F 72.9 °F 55% 31.00 in 10.0 mi South 5.8 mph - N/A   Clear
11:56 PM 90.0 °F 97.9 °F 72.9 °F 57% 31.00 in 10.0 mi South 4.6 mph - N/A   Clear